Regional Weather Roundup
Issued by NWS

Home | Current Version | Previous Version | Graphics & Text | Print | Product List | Glossary On
Versions: 1 2 3 4 5 6 7 8 9 10 11 12 13 14 15 16 17 18 19 20 21 22 23 24 25 26 27 28 29 30 31 32 33 34 35 36 37 38 39 40 41 42 43 44 45 46 47 48 49 50
000
ASUS43 KMPX 111110
RWRMN
WEATHER ROUNDUP FOR MINNESOTA
NATIONAL WEATHER SERVICE TWIN CITIES/CHANHASSEN MN
500 AM CST THU FEB 11 2016


NOTE: "FAIR" INDICATES FEW OR NO CLOUDS BELOW 12,000 FEET WITH NO
SIGNIFICANT WEATHER AND/OR OBSTRUCTIONS TO VISIBILITY. N/A MEANS
CURRENT SKY AND/OR WEATHER CONDITIONS ARE NOT AVAILABLE.

MNZ060>063-068>070-111200-
   Twin Cities Metro

CITY           SKY/WX    TMP DP  RH WIND       PRES   REMARKS
TWIN CITIES    CLOUDY     3  -4  72 N3        30.31R
ST PAUL        PTCLDY     3  -5  69 W3        30.33R
CRYSTAL        CLOUDY     1  -7  68 CALM      30.30R
BLAINE         CLOUDY     0  -6  78 CALM      30.30R
LAKEVILLE      CLOUDY    -2  -6  84 CALM      30.29S
EDEN PRAIRIE   PTCLDY     2  -6  69 N5        30.29R WCI  -8
SOUTH ST PAUL  CLOUDY     2  -5  73 CALM      30.32R
LAKE ELMO      FAIR      -4  -8  84 CALM      30.31R
$$
MNZ001>005-007-008-013>017-022>024-027-028-111200-
   Northwest Minnesota

CITY           SKY/WX    TMP DP  RH WIND       PRES   REMARKS
BEMIDJI        PTCLDY   -19 -24  77 CALM      30.24S
HALLOCK        CLOUDY    -6 -11  77 CALM      30.28S
ROSEAU         CLOUDY   -17 -22  76 S5        30.25F WCI -29
WARROAD        CLOUDY    -9 -15  77 SW3       30.24F
THIEF RVR FALL PTCLDY    -9 -24  49 CALM      30.27S
CROOKSTON      PTCLDY    -2  -8  78 CALM      30.30S
FOSSTON        PTCLDY   -17 -24  70 CALM      30.25S
DETROIT LAKES  CLOUDY    -4  -6  92 CALM      30.25R
MOORHEAD       PTCLDY     1  -2  85 CALM      30.30R
PARK RAPIDS    PTCLDY   -14 -20  74 CALM      30.22F
MAHNOMEN       FAIR      -9 -14  78 CALM      30.26R
$$
MNZ006-009>011-018-025>026-111200-
   North Central Minnesota

CITY           SKY/WX    TMP DP  RH WIND       PRES   REMARKS
BAUDETTE       CLOUDY   -13 -20  71 CALM      30.23S
FLAG ISLAND    CLOUDY    -6 -11  77 CALM      30.23S
INTL FALLS     CLOUDY   -10 -15  78 SW3       30.24R
WASKISH        CLOUDY   -18 -24  76 CALM      30.24F
LONGVILLE      PTCLDY   -17 -22  76 CALM      30.24S
GRAND RAPIDS   PTCLDY   -13 -20  70 CALM      30.23R
CRANE LAKE     CLOUDY   -17 -20  83 CALM      30.26
ORR            CLOUDY   -18 -26  69 CALM      30.19S
COOK           CLOUDY   -22 -27  76 CALM      30.22S
WALKER         FAIR     -17 -22  78 CALM      30.24S
$$
MNZ012-019>021-037-111200-
   Northeast Minnesota

CITY           SKY/WX    TMP DP  RH WIND       PRES   REMARKS
DULUTH         CLOUDY   -10 -15  78 NW7       30.20F WCI -25
ELY            CLOUDY   -20 -26  76 CALM      30.19F
HIBBING        CLOUDY   -22 -27  77 CALM      30.22S
EVELETH        CLOUDY   -20 -27  69 CALM      30.22S
DULUTH HARBOR  CLOUDY    -2  -8  78 W6        30.31S WCI -14
TWO HARBORS    CLOUDY    -9 -17  70 CALM      30.21S
SILVER BAY     CLOUDY    -9 -15  77 CALM      30.21S
GRAND MARAIS     N/A    -10 -16  74 N3        30.25R
G MARAIS ARPRT CLEAR     -9 -15  77 NW5       30.09S WCI -21
$$
MNZ029>031-032-039>041-046>048-054>057-064-111200-
   West Central Minnesota

CITY           SKY/WX    TMP DP  RH WIND       PRES   REMARKS
FERGUS FALLS   CLOUDY     1  -2  85 CALM      30.30S
WHEATON        CLOUDY     1  -2  85 CALM      30.30S
MORRIS         CLOUDY     0  -6  78 CALM      30.26S
ALEXANDRIA     CLOUDY     0  -7  72 SW3       30.25R
ELBOW LAKE     FAIR       2   0  88 CALM      30.26S
WADENA         CLOUDY    -6  -9  84 CALM      30.24R
GLENWOOD       CLOUDY     1  -4  78 S3        30.26R
APPLETON       PTCLDY     0  -6  78 CALM      30.29R
BENSON         CLOUDY     0  -4  85 CALM      30.28R
ORTONVILLE     CLOUDY     1  -2  85 CALM      30.28R
MADISON        PTCLDY     3   0  85 CALM      30.30R
WILLMAR        FAIR       5   1  85 CALM      30.29R
$$
MNZ033>034-036-042>043-049>051-058-059-111200-
   Central Minnesota

CITY           SKY/WX    TMP DP  RH WIND       PRES   REMARKS
ST CLOUD       CLOUDY    -2  -7  79 CALM      30.29R
SAUK CENTRE    FAIR      -4  -8  82 CALM      30.27R
PAYNESVILLE    CLOUDY    -2  -6  84 CALM      30.28R
AITKIN         PTCLDY   -15 -24  64 CALM      30.26R
PINE RIVER     PTCLDY   -15 -18  84 CALM      30.28S
BRAINERD       PTCLDY   -15 -20  78 CALM      30.26S
STAPLES        CLOUDY    -9 -11  92 CALM      30.25R
LONG PRAIRIE   FAIR      -6  -9  84 CALM      30.26R
LITTLE FALLS   CLOUDY    -8 -13  77 CALM      30.29R
LITCHFIELD     CLOUDY     1   0  92 CALM      30.28R
BUFFALO        CLOUDY    -1  -5  82 CALM      30.31S
MAPLE LAKE     CLOUDY    -1  -4  86 CALM      30.30S
$$
MNZ037-044-045-052-053-111200-
   East Central Minnesota

CITY           SKY/WX    TMP DP  RH WIND       PRES   REMARKS
PRINCETON      CLOUDY    -4  -8  84 CALM      30.29R
MORA           PTCLDY    -6 -13  71 CALM      30.31R
CAMBRIDGE      CLOUDY     0  -9  65 CALM      30.28R
RUSH CITY      MOCLDY    -1  -8  71 N5        30.30R WCI -11
MOOSE LAKE     PTCLDY   -13 -18  77 SW3       30.27R
HINCKLEY       FAIR      -8 -13  77 N5        30.29S WCI -19
CLOQUET        CLOUDY   -11 -17  77 NW6       30.23R WCI -25
MCGREGOR       PTCLDY   -13 -18  77 CALM      30.27S
$$
MNZ071>073-080-081-089-090-097-098-111200-
   Southwest Minnesota

CITY           SKY/WX    TMP DP  RH WIND       PRES   REMARKS
MONTEVIDEO     CLOUDY     1  -2  85 CALM      30.31R
GRANITE FALLS  CLOUDY     1  -3  85 CALM      30.31R
CANBY          CLOUDY     4   1  87 CALM      30.29S
MARSHALL       PTCLDY     0  -5  79 CALM      30.28S
REDWOOD FALLS  PTCLDY     5   0  79 CALM      30.30R
OLIVIA         CLOUDY     5   1  85 CALM      30.29R
PIPESTONE      CLOUDY    14   3  62 CALM      30.22S
WINDOM         PTCLDY    -6  -8  92 CALM      30.26S
WORTHINGTON    CLOUDY     9   3  78 CALM      30.26R
JACKSON        PTCLDY     0  -8  71 W3        30.27R
TRACY          CLOUDY     2  -2  85 CALM      30.27R
SLAYTON        CLOUDY     2   1  95 CALM      30.24S
$$
MNZ065>067-074>077-082>085-091>093-111200-
   South Central Minnesota

CITY           SKY/WX    TMP DP  RH WIND       PRES   REMARKS
MANKATO        PTCLDY     1  -2  85 CALM      30.29R
NEW ULM        PTCLDY    -2  -6  84 CALM      30.30R
ST JAMES       PTCLDY     0  -4  85 CALM      30.30R
FAIRMONT       CLOUDY     0  -6  78 N3        30.27R
GLENCOE        CLOUDY     2  -1  87 CALM      30.28S
FARIBAULT        N/A     -8 -11  84 CALM      30.28S
OWATONNA       PTCLDY     0  -6  78 CALM      30.27R
WASECA         PTCLDY    -2  -6  84 CALM      30.29R
ALBERT LEA       N/A     -2  -8  78 CALM      30.27R
$$
MNZ078>079-086>088-094>096-111200-
   Southeast Minnesota

CITY           SKY/WX    TMP DP  RH WIND       PRES   REMARKS
ROCHESTER      CLOUDY     2  -5  72 NW6       30.25R WCI  -9
RED WING       CLOUDY    -6 -11  77 CALM      30.31R
STANTON        PTCLDY    -4  -8  82 CALM      30.29R
DODGE CENTER   PTCLDY    -6 -11  77 CALM      30.25R
WINONA         CLOUDY     0  -4  85 CALM      30.32S
AUSTIN         PTCLDY    -2  -6  84 CALM      30.27R
PRESTON        CLOUDY     0  -6  75 NW6       30.26R WCI -11
$$
ABBREVIATIONS USED IN REMARKS
   TC - TEMPERATURES IN CELSIUS
  WCI - WIND CHILL INDEX
   HX - HEAT INDEX
  VSB - VISIBILITY
$$



USA.gov is the U.S. government's official web portal to all federal, state and local government web resources and services.